Location: ČR
(50.0000°N, 15.0000°E)
Time: 02:44:22
(UTC+00:00)

Courier 1B Rocket - Pass Details

Date: 02 November 2021
Orbit: 920 x 1202 km, 28.3° (Epoch: 27 November)

Event Time Altitude Azimuth Distance (km) Brightness Sun altitude
Rises 12:59:51 0° 234° (SW) 3,944 9.5 18.5°
Reaches altitude 10° 13:05:30 10° 200° (SSW) 2,902 9.3 18.0°
Maximum altitude 13:07:02 11° 187° (S) 2,822 8.7 17.8°
Drops below altitude 10° 13:08:33 10° 175° (S) 2,855 8.3 17.7°
Sets 13:13:54 0° 140° (SE) 3,722 8.2 17.2°
